ECMWFNIL_prec_cthk_000.txt.gz
RH
23 26 27 28 27 27 26 25 25 27 28 29 29 28 27 26 24 23 22 21 22 22 21 21 21 22 24 24 25 27 36 50 63 75 87 92 90 88 88 89 82 71
24 27 29 30 29 28 29 28 27 26 27 28 29 29 30 30 29 27 26 25 24 24 23 22 20 21 22 23 25 27 31 43 56 69 81 87 88 91 90 88 85 75
24 25 28 29 28 27 27 27 27 26 26 27 28 29 30 31 32 30 30 30 28 27 26 24 21 20 21 22 24 27 31 38 46 59 75 80 83 91 93 89 88 81
24 23 24 26 26 26 26 26 26 25 25 26 28 31 31 32 34 32 32 32 32 31 29 27 24 21 20 21 22 24 29 34 39 50 68 79 85 93 93 90 90 86
25 23 21 21 22 23 24 24 25 25 24 25 27 31 33 35 36 36 34 33 33 34 33 31 29 24 22 21 21 21 23 30 36 45 62 78 91 96 93 90 90 88
27 24 21 19 19 20 22 23 24 25 24 24 25 29 36 40 41 41 39 37 35 34 35 35 33 30 26 22 21 21 21 23 29 41 56 71 84 91 90 91 90 86
28 25 22 20 19 19 21 21 22 25 25 25 26 30 37 43 46 47 47 44 41 39 38 37 37 35 31 26 23 20 20 20 23 33 47 61 75 84 84 86 89 87
29 27 24 22 21 20 22 23 23 24 25 26 28 33 38 42 46 50 52 51 49 46 44 43 42 40 37 33 26 22 20 19 19 26 38 52 66 77 80 80 83 87
30 28 25 25 25 24 25 25 25 26 27 29 31 35 40 42 44 48 51 54 53 51 50 49 47 44 41 37 32 26 22 19 17 20 30 43 54 66 76 76 78 86
30 29 29 30 30 29 28 28 27 27 29 33 35 38 42 44 46 48 50 52 52 52 52 51 51 48 43 40 37 31 26 21 18 16 23 35 44 53 65 72 81 89
32 33 34 35 34 32 29 29 30 30 31 35 38 40 42 45 48 51 54 54 53 53 52 50 51 52 47 43 40 36 30 24 21 17 19 28 38 46 53 64 81 91
36 38 39 37 35 33 31 31 31 32 33 36 40 41 43 47 51 55 57 57 57 58 56 51 50 51 50 45 42 39 34 28 24 19 18 25 34 40 46 57 73 87
38 41 41 39 36 35 34 33 33 33 34 37 40 41 44 50 55 58 58 59 60 62 61 56 51 49 50 49 45 41 37 31 27 23 20 25 32 36 43 52 69 87
40 43 43 40 38 37 36 35 35 35 36 38 40 41 45 52 58 59 60 60 60 62 62 61 57 51 49 50 47 44 40 33 29 26 23 26 32 36 44 53 67 86
44 45 43 42 40 39 37 37 37 39 40 41 43 43 46 53 58 60 60 61 61 62 63 62 61 56 52 50 47 45 43 36 30 27 25 27 32 37 47 55 64 82
47 46 45 44 42 41 41 41 41 42 43 44 43 44 46 53 58 59 60 62 63 64 64 62 61 59 56 53 49 46 45 39 32 28 26 27 31 37 49 56 59 74
49 48 48 47 45 44 43 42 43 43 43 43 42 43 47 53 57 58 60 62 64 65 66 65 62 60 59 57 51 48 48 43 36 31 28 28 32 36 46 55 56 67
52 51 50 49 48 48 48 46 47 47 46 45 43 43 47 52 55 57 58 61 65 66 68 67 63 61 60 59 54 50 51 48 41 34 29 30 33 34 40 48 53 66
53 53 52 52 54 56 57 56 55 53 50 49 47 47 50 53 56 57 58 61 65 66 66 66 63 62 60 58 56 54 53 52 46 37 31 31 34 37 39 41 48 68
54 56 58 60 63 64 64 63 60 57 54 53 53 53 55 57 60 61 62 64 65 65 65 65 63 62 60 56 57 57 54 54 50 40 35 34 35 37 38 39 52 76
57 62 66 68 68 68 68 66 64 62 60 59 58 57 59 62 64 67 68 67 66 66 67 66 64 62 59 57 59 59 56 55 51 42 37 37 38 41 42 47 61 79
64 67 69 70 70 69 69 69 68 67 66 65 63 63 66 68 67 70 71 70 69 70 70 68 65 63 61 60 61 60 58 57 52 43 38 38 43 49 51 57 65 74
69 69 68 71 72 72 73 74 72 71 70 69 69 70 73 72 71 74 77 76 76 76 74 71 69 67 66 64 64 62 59 56 51 45 40 38 44 52 56 62 71 78
75 75 74 76 77 77 77 76 74 73 72 73 75 77 78 78 77 79 81 81 81 80 77 73 72 70 67 66 67 64 60 55 48 43 42 40 43 54 65 74 81 87
84 83 83 84 84 82 82 81 79 78 78 79 81 83 83 81 80 80 80 81 82 81 76 73 72 70 66 66 68 66 60 54 47 43 44 43 46 60 76 86 89 91
89 88 89 90 88 86 87 87 86 86 85 84 83 84 87 87 86 85 85 85 85 84 79 73 70 67 65 65 68 68 61 50 43 43 44 44 48 60 74 85 91 91

ECMWFNIL_prec_cthk_003.txt.gz
RH
24 22 20 18 15 15 15 17 19 21 22 24 24 24 23 22 21 22 21 20 20 22 22 22 21 21 21 20 20 20 20 22 27 33 40 46 54 65 80 91 93 92
25 23 22 21 18 17 16 17 19 19 21 23 24 25 24 23 22 23 24 23 23 22 23 24 23 22 23 21 20 20 20 20 20 24 32 38 44 54 69 80 85 89
26 26 24 23 22 20 18 18 19 19 19 20 21 24 25 25 23 24 26 27 27 26 26 27 26 25 25 24 22 20 20 20 21 24 27 30 35 42 53 66 74 76
27 27 26 26 24 23 21 20 20 19 19 18 19 21 23 25 25 25 26 27 28 28 29 30 30 29 27 28 27 23 21 19 20 22 24 29 37 39 39 51 63 66
29 28 27 27 27 26 25 23 21 21 20 19 18 18 21 24 25 25 25 27 29 30 30 31 32 32 31 31 30 28 25 21 19 20 20 23 33 40 38 40 50 59
30 28 27 27 27 27 26 25 24 23 22 21 20 19 20 22 24 24 24 25 27 29 31 32 32 34 34 33 33 32 29 26 21 20 21 20 22 32 41 40 38 47
30 29 28 26 26 26 25 25 25 25 24 24 23 21 22 23 23 24 24 24 25 27 30 32 33 35 36 36 36 35 33 31 27 21 22 23 21 23 35 43 39 38
30 28 27 25 24 23 24 25 26 27 27 28 27 26 25 25 24 24 24 23 24 25 26 29 31 33 37 38 39 38 35 34 32 27 22 22 23 20 25 36 43 42
29 27 25 24 22 22 22 23 25 27 28 29 30 31 29 28 26 24 24 23 23 23 24 26 28 31 34 37 40 42 40 37 36 33 27 22 22 22 22 26 37 46
28 25 23 21 21 22 21 22 26 30 32 31 32 33 32 30 28 25 24 24 23 23 23 25 28 32 35 36 38 41 42 42 40 38 34 27 21 21 23 25 30 39
26 23 21 20 21 23 25 26 29 32 35 35 36 35 34 33 31 27 25 24 24 24 25 27 32 36 38 37 38 41 44 44 42 41 40 34 27 21 21 26 28 32
24 21 21 22 24 27 29 31 33 35 37 38 38 37 36 35 33 29 26 25 25 25 26 30 37 40 41 41 42 44 46 45 42 42 42 40 35 26 20 23 27 29
23 22 24 28 31 32 33 34 35 36 38 38 39 38 38 37 34 32 29 26 26 25 27 32 39 44 45 44 45 47 49 48 44 43 43 42 40 33 24 21 23 29
22 24 30 34 37 37 37 36 36 38 38 38 39 38 39 38 36 34 31 29 27 25 27 32 37 44 46 46 47 47 49 51 49 46 45 43 42 40 33 24 20 25
23 27 33 37 39 40 40 39 40 41 41 42 41 41 41 41 39 36 34 32 30 27 27 29 34 40 43 44 46 46 48 52 53 50 46 44 44 42 38 31 20 19
26 32 37 41 43 44 44 45 46 46 46 45 45 45 46 44 43 42 39 36 34 31 29 28 30 35 39 42 46 47 51 54 54 52 48 45 47 45 40 36 24 16
33 39 43 45 47 48 49 49 49 49 49 49 49 48 48 46 46 45 43 41 39 37 34 31 30 32 35 41 47 50 54 56 55 54 50 47 49 48 43 38 28 18
41 44 47 50 51 51 48 46 47 51 53 56 57 56 55 51 49 46 43 42 42 40 38 35 30 29 34 41 48 54 56 57 57 56 54 49 48 49 45 39 30 22
45 47 50 53 52 48 44 45 50 55 58 61 62 63 60 55 51 48 44 42 41 40 39 37 32 31 34 41 48 55 58 58 59 58 56 53 50 49 48 42 33 26
46 49 53 54 50 46 46 50 55 57 59 60 61 62 60 56 53 49 47 44 41 39 39 38 36 33 36 42 49 54 57 58 59 59 58 56 53 49 47 42 34 29
47 52 56 54 49 50 53 57 59 59 59 59 60 59 58 56 54 51 49 47 43 41 40 39 38 37 39 46 52 54 56 56 58 59 58 57 55 51 45 39 34 32
49 55 57 54 52 55 59 61 61 61 61 60 58 57 56 55 54 52 51 48 45 44 42 40 39 40 45 51 55 55 55 55 56 58 57 57 57 54 46 40 37 35
51 56 58 56 56 60 65 68 68 66 64 62 59 57 55 54 53 53 52 50 48 47 46 43 41 43 50 55 55 55 57 58 59 60 59 58 58 56 50 45 42 39
53 57 58 58 59 66 73 77 76 74 69 65 62 59 57 56 55 54 53 52 51 49 49 48 46 49 55 58 58 58 60 61 61 62 62 61 59 58 55 49 45 43
55 57 59 61 65 73 81 82 81 79 74 70 68 67 66 65 62 59 57 56 55 53 53 54 54 57 61 62 62 61 61 61 60 61 62 61 59 60 57 51 47 46
55 59 63 69 74 79 83 83 82 80 77 75 76 76 75 74 71 67 63 63 62 60 60 61 63 65 65 64 64 62 61 61 59 59 60 60 60 62 60 53 50 47

ECMWFNIL_prec_cthk_006.txt.gz
RH
22 22 22 22 22 22 21 21 21 20 18 15 13 12 12 11 11 11 13 17 18 18 18 20 23 25 26 23 19 17 18 20 23 26 28 32 36 42 53 64 65 69
22 21 21 21 21 21 21 21 21 21 21 20 17 14 12 12 12 11 11 13 17 19 18 18 17 20 27 28 26 22 18 17 18 20 24 27 34 42 51 55 50 52
22 21 21 21 21 21 20 21 22 22 22 22 20 18 15 13 12 12 12 12 14 18 19 19 18 22 27 29 30 28 24 21 17 17 18 21 27 34 37 38 37 44
22 22 22 21 21 21 21 21 21 22 22 22 21 21 18 16 14 14 14 14 14 15 18 20 20 21 23 24 29 31 29 27 23 19 17 16 21 25 28 33 38 46
24 23 22 22 21 21 21 21 22 22 23 21 21 21 19 19 21 21 22 23 21 18 17 19 20 21 23 24 27 31 31 30 28 26 22 18 18 20 25 31 34 39
25 24 23 23 22 22 22 22 22 22 23 25 26 24 21 22 25 28 30 30 29 26 22 20 21 21 24 26 27 30 32 32 30 30 28 25 20 18 21 25 25 30
27 26 25 24 23 23 23 23 22 24 28 32 33 32 27 23 25 30 34 32 30 31 29 27 27 25 24 25 27 31 33 33 32 32 31 30 27 23 21 23 24 27
28 27 26 25 24 24 23 23 24 29 34 36 34 34 31 28 26 30 35 36 34 33 32 32 32 31 31 29 29 32 34 34 34 34 34 33 32 30 26 25 25 23
29 28 27 26 26 25 24 25 28 32 37 36 32 32 31 29 29 31 34 37 36 35 34 34 33 33 34 34 33 33 34 36 35 35 36 36 35 35 32 30 28 24
30 29 29 28 27 26 26 28 30 32 33 33 31 31 31 31 31 31 33 35 36 36 36 36 35 35 34 35 35 34 33 35 36 36 36 37 38 38 36 34 32 27
32 31 31 30 28 27 28 30 30 31 32 32 33 33 33 33 33 33 33 33 34 36 37 37 37 36 35 36 36 36 34 33 34 36 37 38 39 39 39 38 35 32
33 33 32 30 28 28 31 32 32 32 33 35 36 36 35 35 34 33 33 33 33 33 35 36 36 36 36 36 36 36 36 33 32 34 36 37 38 38 39 39 38 36
33 33 31 30 30 31 34 35 35 34 35 38 39 37 36 35 34 34 34 34 34 33 33 34 35 36 36 35 36 36 36 35 33 33 34 35 36 36 37 39 39 38
34 33 31 30 32 36 38 38 35 36 38 39 40 38 36 35 35 35 35 36 36 36 36 35 34 35 36 35 36 37 36 35 33 32 32 34 35 36 37 37 38 39
34 32 32 34 37 40 40 37 35 37 39 40 39 38 37 38 38 38 39 39 40 40 39 39 37 36 36 36 36 36 37 37 35 33 33 33 36 38 38 37 38 40
33 34 37 40 41 41 39 36 35 38 40 39 39 39 41 41 41 41 42 42 42 42 41 41 41 39 39 37 35 34 35 38 39 38 36 35 37 40 41 40 40 43
35 39 42 42 41 39 36 35 37 39 41 42 43 43 45 45 45 45 45 45 45 45 44 43 42 42 42 41 38 35 34 35 37 39 38 37 38 41 44 44 44 48
39 42 43 42 40 37 35 37 40 42 44 46 47 47 47 47 49 49 49 49 48 47 47 46 44 42 43 43 42 41 38 35 35 37 38 38 39 43 47 47 48 49
40 41 41 39 37 36 38 40 43 45 47 48 47 47 47 48 51 52 51 51 50 48 48 47 46 45 44 44 43 43 43 40 37 36 37 38 39 43 47 49 49 50
41 40 38 38 38 40 42 43 44 46 48 48 47 47 48 50 52 54 54 53 51 50 48 47 48 48 47 46 43 43 45 44 41 37 36 37 39 42 46 49 50 50
40 39 38 41 43 44 44 43 45 48 50 51 51 51 53 54 56 56 55 54 53 52 49 47 47 48 49 48 45 43 44 45 43 39 36 37 39 41 44 47 50 51
39 39 41 44 46 45 44 45 48 52 55 57 58 58 58 59 59 58 56 54 53 52 51 49 48 49 51 50 47 45 45 45 44 41 38 38 40 41 43 45 49 52
40 42 45 46 45 44 44 49 54 57 59 61 60 60 61 61 59 56 54 53 52 52 52 51 50 50 51 52 49 46 45 45 43 41 40 39 40 42 43 45 50 53
43 47 47 46 45 46 49 54 59 60 60 62 62 63 62 61 58 56 54 54 55 54 55 54 52 51 51 52 51 47 45 45 44 42 41 41 41 42 43 46 52 56
48 49 48 46 47 50 54 57 59 61 62 64 66 66 65 63 61 59 59 61 62 60 58 57 54 51 50 52 53 50 47 45 45 43 41 40 40 40 42 47 54 58
53 52 50 48 49 52 55 58 60 63 67 69 70 69 67 67 67 67 68 71 72 69 64 60 57 53 51 52 53 53 50 47 47 44 41 40 40 40 43 49 55 59

ECMWFNIL_prec_cthk_009.txt.gz
RH
22 20 19 18 18 17 18 18 19 19 19 20 19 20 20 20 19 18 16 14 12 11 10 9 10 14 17 18 21 23 24 24 24 23 22 23 25 25 26 29 34 34
23 21 20 19 18 18 19 19 19 19 19 19 18 18 19 19 19 19 18 17 15 13 11 10 9 11 15 17 16 17 22 24 23 23 23 22 23 24 25 27 30 31
24 22 21 20 20 20 20 20 20 20 20 19 19 18 17 17 17 18 18 18 17 16 14 13 11 10 13 16 17 17 22 26 25 23 24 24 23 23 24 26 28 29
26 23 22 22 22 22 22 22 21 21 20 19 19 18 17 17 17 17 17 18 19 19 19 18 15 14 14 17 20 23 24 27 27 26 25 26 25 24 24 24 26 28
25 24 23 23 24 24 24 23 23 22 22 21 19 18 17 17 18 18 18 21 25 26 27 27 24 22 22 19 20 24 25 24 26 28 27 26 26 26 25 24 23 25
25 24 24 24 25 25 25 25 24 24 22 21 20 19 19 19 19 20 21 25 29 31 31 32 30 29 27 25 23 26 27 26 26 28 28 27 26 26 26 25 24 23
25 24 25 26 26 27 26 26 25 24 23 22 22 21 22 22 21 23 25 26 29 30 31 31 31 30 30 29 29 29 30 30 29 29 29 28 27 26 26 26 26 25
27 26 27 27 27 27 27 26 26 25 24 24 24 25 27 28 27 26 27 27 28 29 30 30 29 29 30 30 30 31 31 31 30 30 30 29 29 28 27 26 26 25
29 29 29 28 28 28 27 26 27 26 27 27 28 29 31 31 31 30 30 30 29 28 28 28 28 27 28 29 29 30 31 31 31 31 31 31 30 30 29 28 28 26
32 31 31 29 29 28 27 27 27 28 29 30 30 31 33 32 31 32 32 31 29 29 28 28 28 27 26 26 26 27 30 30 31 31 31 32 31 31 31 30 30 29
35 33 32 31 30 29 28 28 28 29 30 31 31 32 33 32 32 32 32 31 31 30 30 29 28 28 27 26 25 25 27 29 30 31 31 31 32 31 31 31 31 31
38 36 35 33 31 29 29 28 29 30 31 32 33 33 32 32 32 32 32 33 31 31 31 31 30 29 28 27 26 25 25 26 28 30 31 31 32 32 32 32 32 32
40 39 37 35 32 30 30 29 29 31 31 32 33 32 31 32 32 33 33 33 32 31 32 32 32 31 30 29 28 27 26 25 25 27 28 30 31 31 32 33 33 33
41 40 37 34 32 31 30 30 31 33 33 33 32 31 32 33 33 34 33 32 32 31 31 33 33 32 31 31 31 30 29 28 26 26 27 28 30 31 31 32 33 35
41 39 35 33 33 32 33 33 33 34 33 32 32 32 33 34 34 33 31 31 31 31 32 33 34 33 33 33 33 34 34 33 31 29 28 27 29 30 31 32 34 35
41 38 36 35 35 35 35 36 34 33 33 33 34 34 34 35 34 33 31 31 31 32 33 35 36 36 36 37 37 37 38 38 37 35 33 31 29 29 30 32 34 35
40 38 37 37 36 37 37 36 35 35 35 35 35 35 35 35 35 34 33 34 35 36 38 39 38 39 40 41 42 41 41 41 41 40 39 38 35 32 29 30 33 35
38 38 38 38 37 38 37 36 36 36 35 35 34 34 36 35 36 36 37 39 40 41 41 42 41 41 42 43 43 44 43 42 41 41 41 41 40 38 35 32 32 34
38 37 37 37 37 36 37 37 37 36 34 34 33 34 36 37 39 41 42 44 45 44 44 43 42 42 42 43 43 43 44 43 41 41 41 41 41 41 40 37 34 34
37 37 37 37 36 36 37 36 36 35 34 33 34 36 40 43 45 45 46 46 46 45 45 44 43 42 42 42 43 43 46 46 44 43 42 41 40 41 41 40 38 35
38 38 38 37 36 37 36 35 35 34 34 35 38 43 47 48 48 47 47 47 46 46 46 45 44 44 43 44 44 45 47 48 47 46 46 43 41 40 40 41 41 39
39 39 38 38 38 37 35 34 34 34 37 40 44 48 50 48 47 46 46 47 48 49 49 47 47 47 47 47 48 48 49 49 48 48 47 46 43 41 40 41 42 42
39 39 40 40 39 37 34 34 36 38 41 45 47 48 49 48 47 48 49 51 52 52 52 50 50 51 51 50 50 51 51 50 50 50 49 48 46 43 42 40 41 43
39 40 41 40 38 36 36 37 40 44 47 49 50 51 52 53 52 54 55 55 54 54 54 53 51 52 52 51 52 52 52 52 52 53 52 51 50 48 45 42 41 42
41 42 42 41 40 40 42 44 47 49 51 52 54 55 56 57 58 57 57 56 55 55 56 56 55 55 56 57 57 58 58 57 56 56 55 54 53 51 47 43 42 43
43 43 43 44 45 46 49 50 51 51 51 51 53 55 57 59 60 59 57 56 57 59 60 62 62 63 66 68 68 67 66 63 61 59 57 56 55 53 49 45 43 43

ECMWFNIL_prec_cthk_012.txt.gz
RH
22 22 21 21 20 19 18 18 17 17 16 15 16 17 17 17 17 17 17 16 16 16 15 14 14 13 13 12 11 10 11 15 18 17 16 18 18 19 21 23 27 35
22 22 22 22 21 19 19 18 18 17 17 17 17 18 18 18 17 17 17 16 16 15 14 14 15 15 14 13 12 12 13 14 14 13 15 17 17 17 19 20 21 25
22 23 23 23 22 21 20 19 20 19 19 19 19 19 19 18 18 17 17 16 16 15 14 14 15 15 16 15 13 13 14 16 15 14 15 17 20 19 18 19 19 20
22 24 24 24 23 22 21 20 21 21 21 21 21 20 20 19 19 18 17 17 16 15 15 17 18 18 19 19 19 17 14 14 18 22 23 22 22 22 21 21 21 21
23 24 25 25 24 23 22 22 22 22 22 23 22 22 21 20 20 19 18 18 17 17 17 20 23 24 24 25 25 24 21 16 16 22 29 29 26 24 24 24 23 23
24 25 25 25 25 23 23 22 23 23 23 22 23 22 22 21 20 19 19 21 21 20 19 20 24 26 28 28 28 28 26 22 17 19 27 31 28 25 25 27 26 25
25 26 26 26 25 24 23 24 24 24 24 24 23 23 22 21 20 20 21 22 23 23 22 22 23 25 27 28 28 27 27 27 24 22 25 30 32 30 28 28 27 26
26 27 28 27 25 24 25 25 26 26 25 25 24 23 22 22 22 23 23 24 24 24 25 25 25 26 28 29 29 28 26 27 27 26 26 27 30 31 31 30 28 27
29 30 30 28 27 27 27 27 27 27 26 26 25 24 24 24 25 25 26 25 24 25 25 26 27 27 29 29 29 28 26 25 25 26 27 26 26 28 29 30 30 28
31 32 32 30 28 28 28 29 29 28 28 27 26 26 26 27 27 27 27 26 25 26 26 27 28 28 29 30 30 28 27 26 25 25 25 26 26 26 26 27 28 29
33 34 33 31 30 30 29 29 30 29 29 28 28 28 28 28 28 28 27 27 27 27 26 27 28 28 30 31 31 30 28 26 26 25 25 25 25 26 26 26 27 28
34 34 33 32 32 32 31 31 30 30 30 30 29 29 28 28 28 28 27 27 27 27 27 27 28 28 30 31 32 31 30 28 27 26 26 25 25 25 25 26 27 27
35 33 33 33 33 34 34 33 32 31 31 30 29 29 29 28 27 26 26 26 27 27 28 28 28 29 30 32 32 30 30 30 29 28 27 27 26 26 25 25 26 26
36 35 35 35 35 35 35 33 31 30 29 29 29 29 29 28 27 26 26 26 27 27 27 27 28 29 31 32 32 31 32 31 30 30 29 29 28 27 27 26 25 26
38 37 36 35 35 34 32 30 29 29 29 29 29 29 29 28 29 28 28 28 28 28 28 28 28 29 31 33 32 32 32 32 33 33 32 31 31 30 30 29 28 27
38 36 35 34 33 31 30 30 30 31 31 31 31 31 30 29 29 29 29 30 30 31 31 32 32 32 32 32 32 32 32 33 35 35 35 34 34 34 33 33 32 31
37 36 35 34 32 31 31 31 32 32 32 33 32 31 30 29 28 29 30 32 33 34 34 35 35 34 34 33 33 34 35 37 38 38 38 37 37 37 37 37 37 36
37 37 36 34 32 32 32 31 32 33 33 32 31 30 29 29 29 30 31 33 34 35 36 36 36 36 36 36 37 38 40 42 42 42 41 40 40 39 39 39 38 38
37 35 34 33 32 33 32 32 33 34 33 31 31 31 30 30 30 31 33 33 35 36 37 37 37 38 40 42 43 44 44 45 45 43 43 42 41 41 41 40 39 39
35 34 33 33 34 34 34 35 35 34 32 31 32 32 30 30 31 32 33 34 35 37 38 40 42 44 46 46 45 45 44 44 44 44 43 43 42 42 41 40 40 40
33 33 33 34 35 36 36 36 34 33 33 33 33 32 30 30 31 33 34 36 38 41 43 43 45 47 47 47 46 45 45 44 44 43 43 44 43 42 42 41 40 40
33 33 35 36 37 37 36 35 35 36 35 35 34 32 30 31 34 36 38 40 42 44 45 44 44 44 45 46 47 48 48 47 47 47 45 45 44 44 44 43 42 40
34 35 37 37 37 37 36 37 38 38 36 35 33 31 33 37 41 41 42 43 44 45 45 44 44 45 46 48 49 50 50 49 49 49 48 47 46 45 44 43 42 42
35 37 37 37 38 39 39 39 39 38 36 33 32 33 38 43 45 45 45 46 47 48 48 48 49 51 51 52 52 52 52 52 51 50 49 48 47 46 45 43 43 42
37 37 38 39 40 41 41 41 39 36 33 32 34 39 42 44 45 46 46 48 50 51 52 53 52 53 54 53 53 53 53 53 53 52 50 49 49 48 47 46 45 44
38 38 39 41 41 41 41 39 36 33 32 33 37 41 43 44 46 47 48 50 52 53 54 55 54 53 54 54 53 54 54 54 55 54 52 52 52 52 51 50 49 48